Tracking 17752 objects as of 30-June-2016
HD Live streaming from Space Station
objects crossing your sky now

ARIANE 5 DEB (SYLDA)

Track ARIANE 5 DEB (SYLDA) now!


NORAD ID: 28914
Int'l Code: 2005-049D
Perigee: 672.9 km
Apogee: 36,015.7 km
Inclination: 4.1 °
Period: 644.5 minutes
Semi major axis: 24715 km
RCS: 22.4158 m2 (large)
Launch date: December 21, 2005
Source: France (FR)
Launch site: FRENCH GUIANA (FRGUI)

Note: This is SATELLITE DEBRIS
Your satellite tracking list
Your tracking list is empty





NASA's NSSDC Master Catalog

Two Line Element Set (TLE):
1 28914U 05049D   16180.80311612 -.00000085  00000-0 -18282-2 0  9998
2 28914   4.0997 253.5785 7150624 128.2148 283.4118  2.23436878 85857
Source of the keplerian elements: AFSPC

N2YO: 890